Location: Newark
(13.8117°N, 3.6025°W)
Time: 22:19:41
(UTC+00:00)

Explorer 11/Cluster Stage 4 - Pass Details

Date: 01 September 2019
Orbit: 467 x 1260 km, 28.8° (Epoch: 21 September)

Event Time Altitude Azimuth Distance (km) Brightness Sun altitude
Rises 06:05:03 0° 268° (W) 2,950 - -0.3°
Exits shadow 06:05:05 - 268° (W) 2,937 8.8 -0.3°
Reaches altitude 10° 06:07:23 10° 278° (W) 2,153 8.2 0.3°
Maximum altitude 06:12:03 35° 344° (NNW) 1,285 7.7 1.4°
Drops below altitude 10° 06:17:47 10° 48° (NE) 2,663 10.4 2.8°
Sets 06:20:59 0° 57° (ENE) 3,754 11.4 3.5°
